Regional Weather Roundup
Issued by NWS Newport/Morehead, NC

Current Version | Previous Version | Graphics & Text | Print | Product List | Glossary Off
Versions: 1 2 3 4 5 6 7 8 9 10 11 12 13 14 15 16 17 18 19 20 21 22 23 24 25 26 27 28 29 30 31 32 33 34 35 36 37 38 39 40 41 42 43 44 45 46 47 48 49 50

000
ASUS42 KMHX 281513
RWRMHX
WEATHER ROUNDUP FOR EASTERN NORTH CAROLINA
NATIONAL WEATHER SERVICE NEWPORT/MOREHEAD CITY NC
1100 AM EDT WED JUN 28 2017

NOTE: "FAIR" INDICATES FEW OR NO CLOUDS BELOW 12,000 FEET
WITH NO SIGNIFICANT WEATHER AND/OR OBSTRUCTIONS TO VISIBILITY

NCZ015>017-031-032-045>047-102-103-281600-
NORTH COAST

CITY           SKY/WX    TMP DP  RH WIND       PRES   REMARKS
EDENTON        SUNNY     78  60  52 CALM      30.19R
ELIZABETH CITY SUNNY     76  56  49 NE10      30.18S
KITTY HAWK     SUNNY     75  60  59 NE6       30.17R
MANTEO         SUNNY     75  61  61 NE15      30.18R

$$

NCZ045>047-081-094-103-104-281600-
CENTRAL COAST

CITY           SKY/WX    TMP DP  RH WIND       PRES   REMARKS
FRISCO         NOT AVBL

$$

NCZ095-097-098-100-101-281600-
SOUTHERN COAST

CITY           SKY/WX    TMP DP  RH WIND       PRES   REMARKS
BEAUFORT       SUNNY     82  59  45 VRB7      30.16S
CEDAR ISLAND   NOT AVBL
JACKSONVILLE   SUNNY     81  56  42 NE7       30.17R
PINEY ISLAND   SUNNY    N/A N/A N/A N8        30.17R
WILMINGTON     SUNNY     81  56  42 NE8       30.18R


$$

NCZ011>013-027>030-043-044-078>080-089-090>093-098-281600-
COASTAL PLAIN

CITY           SKY/WX    TMP DP  RH WIND       PRES   REMARKS
AHOSKIE          N/A     74  58  58 N6        30.20R
CLINTON        SUNNY     78  59  52 N6        30.20R
ELIZABETHTOWN  NOT AVBL
GOLDSBORO      SUNNY     78  60  53 CALM      30.18R
GREENVILLE     SUNNY     79  59  50 SE6       30.19S
HAVELOCK       SUNNY     81  53  37 NE8       30.18R
KENANSVILLE    SUNNY     77  57  50 E3        30.19S
KINSTON        SUNNY     79  59  50 E8        30.20R
NEW BERN       SUNNY     78  62  57 N6        30.19R
RICHLANDS      SUNNY     79  57  46 N9        30.19R
ROCKY MOUNT    SUNNY     77  59  53 N7        30.21R
WASHINGTON     SUNNY    N/A N/A N/A E8        30.19R
WHITEVILLE     SUNNY     79  56  44 E9        30.18R

$$

AMZ130-135-150-152-154-156-158-170-250-252-270-ANZ085-086-088-633-658-670-281600-
MARINE OBSERVATIONS

STATION/POSITION TIME  TEMP    WIND        PRES    WAVE   SWELL
                       AIR SEA DIR/SP/G            HT/PER HT/PER
                 (UTC) (F)     (DEG/KT/KT) (MB)    (FT/S) (FT/S)
CHESAPEAKE LIGHT NOT AVBL
64 E VA BEACH    1450   71 74   40/ 10/ 12 1022.0    3/ 5   2/ 5
DUCK             1448   71 74   30/ 11/ 12 1021.7
2 E DUCK         NOT AVBL
OREGON INLET     1448           30/ 11/ 14   N/A
13E OREGON INLT  1448      74                N/A     2/ 3   2/ 8
HATTERAS CG      1448   76 78   20/ 11/ 12 1021.2
DIAMOND BUOY     1450   76 80  360/ 12/ 14 1020.9    2/ 6   2/ 6
CAPE LOOKOUT     1500   78      60/ 10/ 11 1021.2
BEAUFORT LAB     1448   79 77   60/  6/  9 1020.8
30 SE NEW RVR IN 1408   77 80   50/ 10/ 14 1021.3
30 SE NEW RVR IN 1413      80                N/A     3/ 4
27 SE WRIGHTSVLE 1408   78 80   70/ 14/ 17 1021.0
5 SE WRIGHTSVLE  1408   76 79   50/ 12/ 17 1021.3
225 S CAPE HAT   1450   80 81   40/ 14/ 14 1019.6    2/ 6   2/ 7
41 SE CHARLESTON 1450   80 80   60/ 17/ 21 1019.8    3/ 4   2/ 7

$$



USA.gov is the U.S. government's official web portal to all federal, state and local government web resources and services.